Tracking 20369 objects as of 17-Feb-2020
HD Live streaming from Space Station
objects crossing your sky now

OBJECT PN

Track OBJECT PN now!
10-day predictions


NORAD ID: 43638
Int'l Code: 1998-067PN
Perigee: 388.9 km
Apogee: 391.6 km
Inclination: 51.6 °
Period: 92.2 minutes
Semi major axis: 6761 km
RCS: Unknown
Launch date: November 20, 1998
Source: (TBD)
Launch site: TYURATAM MISSILE AND SPACE COMPLEX (TTMTR)
aabbcc
Your satellite tracking list
Your tracking list is empty




NASA's NSSDC Master Catalog

Two Line Element Set (TLE):
1 43638U 98067PN  20047.84292478  .00008069  00000-0  98046-4 0  9995
2 43638  51.6355 205.9467 0002018 296.3721  63.7065 15.61577105 77655
Source of the keplerian elements: AFSPC